Weather History for Sedalia, MO

Change the Weather History Date:

Monday, April 7, 2014

  Actual Average Record
Temperature  
Mean Temperature 55 °F 54 °F  
Max Temperature 65 °F 65 °F 85 °F (1954)
Min Temperature 45 °F 43 °F 19 °F (2007)
Degree Days  
Heating Degree Days 10 12  
Month to date heating degree days 107 88  
Since 1 July heating degree days 5020 4290  
Cooling Degree Days 0 1  
Month to date cooling degree days 0 6  
Year to date cooling degree days 0 9  
Growing Degree Days 5 (Base 50)    
Moisture  
Dew Point 38 °F    
Average Humidity 53    
Maximum Humidity 76    
Minimum Humidity 30    
Precipitation  
Precipitation T in 0.10 in 1.00 in (1938)
Month to date precipitation 4.36 0.68  
Year to date precipitation 6.07 6.89  
Sea Level Pressure  
Sea Level Pressure 29.77 in    
Wind  
Wind Speed 8 mph (NW)    
Max Wind Speed 17 mph    
Max Gust Speed 22 mph    
Visibility 10 miles    
Events Rain    
T = Trace of Precipitation, MM = Missing Value Source: NWS Daily Summary

Daily Weather History Graph

Daily Weather History Graph

Search for Another Location

Airport:

Trip Planner

Search our weather history database for the weather conditions in past years. The results will help you decide how hot, cold, wet, or windy it might be!

Date:

Astronomy

Apr. 07, 2014 Rise Set
Actual Time 6:48 AM CDT 7:41 PM CDT
Civil Twilight 6:21 AM CDT 8:09 PM CDT
Nautical Twilight 5:49 AM CDT 8:41 PM CDT
Astronomical Twilight 5:16 AM CDT 9:14 PM CDT
Moon 12:46 PM CDT (4/7) 2:17 AM CDT (4/7)
Length of Visible Light 13h 47m
Length of Day
12h 53m
First Quarter, 53% of the Moon is Illuminated
Apr 7
First Quarter
Apr 15
Full
Apr 22
Last Quarter
Apr 29
New
May 6
First Quarter

Hourly Weather History & Observations

Time (CDT) Temp. Windchill Dew Point Humidity Pressure Visibility Wind Dir Wind Speed Gust Speed Precip Events Conditions
12:53 AM 52.0 °F - 34.0 °F 50% 29.82 in 10.0 mi East 3.5 mph - N/A   Overcast
1:53 AM 51.1 °F - 35.1 °F 54% 29.80 in 10.0 mi NE 4.6 mph - N/A   Overcast
2:53 AM 50.0 °F - 35.1 °F 57% 29.79 in 10.0 mi East 3.5 mph - N/A   Overcast
3:53 AM 48.9 °F - 37.0 °F 64% 29.75 in 10.0 mi East 4.6 mph - N/A   Mostly Cloudy
4:53 AM 46.0 °F 42.5 °F 36.0 °F 68% 29.76 in 10.0 mi South 6.9 mph - N/A   Clear
5:53 AM 46.9 °F - 39.0 °F 74% 29.77 in 10.0 mi SW 5.8 mph - N/A   Clear
6:53 AM 46.9 °F - 39.0 °F 74% 29.78 in 10.0 mi WSW 5.8 mph - N/A   Mostly Cloudy
7:53 AM 46.9 °F - 39.9 °F 77% 29.78 in 10.0 mi West 6.9 mph - N/A   Clear
8:53 AM 48.9 °F - 39.9 °F 71% 29.78 in 10.0 mi West 10.4 mph - N/A   Clear
9:53 AM 51.1 °F - 39.9 °F 66% 29.77 in 10.0 mi West 11.5 mph - N/A   Clear
10:53 AM 54.0 °F - 41.0 °F 62% 29.76 in 10.0 mi West 9.2 mph - N/A   Clear
11:53 AM 57.0 °F - 39.0 °F 51% 29.76 in 10.0 mi NNW 11.5 mph - N/A   Clear
12:53 PM 59.0 °F - 36.0 °F 42% 29.76 in 10.0 mi NNW 5.8 mph - N/A   Partly Cloudy
1:53 PM 62.1 °F - 36.0 °F 38% 29.76 in 10.0 mi North 11.5 mph - N/A   Clear
2:53 PM 63.0 °F - 37.0 °F 38% 29.75 in 10.0 mi North 13.8 mph - N/A   Clear
3:53 PM 64.9 °F - 32.0 °F 29% 29.74 in 10.0 mi North 15.0 mph - N/A   Clear
4:53 PM 64.9 °F - 32.0 °F 29% 29.73 in 10.0 mi North 11.5 mph - N/A   Clear
5:53 PM 64.9 °F - 32.0 °F 29% 29.73 in 10.0 mi North 10.4 mph - N/A   Clear
6:53 PM 61.0 °F - 39.0 °F 44% 29.75 in 10.0 mi North 5.8 mph - N/A   Overcast
7:53 PM 59.0 °F - 37.0 °F 44% 29.77 in 10.0 mi NW 8.1 mph - N/A   Overcast
8:53 PM 57.0 °F - 41.0 °F 55% 29.80 in 10.0 mi WNW 5.8 mph - N/A   Overcast
9:53 PM 55.9 °F - 42.1 °F 60% 29.81 in 10.0 mi West 8.1 mph - 0.00 in Rain Light Rain
10:53 PM 55.9 °F - 42.1 °F 60% 29.81 in 10.0 mi WNW 5.8 mph - 0.00 in   Overcast
11:53 PM 55.0 °F - 43.0 °F 64% 29.82 in 10.0 mi WNW 5.8 mph - 0.00 in   Overcast